Previsão horária em Bolshie Hutora

Hoje, 5 Março, Sexta-feira

Tempo Temperatura Precipitação Vento Pressão Humidade
00:00 -7°C° 0 mm 3 m/s 736 mmHg 92%
01:00 -8°C° 0 mm 3 m/s 737 mmHg 92%
02:00 -9°C° 0 mm 3 m/s 737 mmHg 94%
03:00 -9°C° 0 mm 3 m/s 737 mmHg 95%
04:00 -9°C° 0 mm 3 m/s 738 mmHg 95%
05:00 -10°C° 0 mm 3 m/s 738 mmHg 95%
06:00 -10°C° 0 mm 3 m/s 738 mmHg 95%
07:00 -10°C° 0 mm 3 m/s 739 mmHg 95%
08:00 -9°C° 0 mm 2 m/s 739 mmHg 95%
09:00 -7°C° 0 mm 2 m/s 739 mmHg 91%
10:00 -6°C° 0 mm 2 m/s 739 mmHg 87%
11:00 -4°C° 0 mm 2 m/s 740 mmHg 83%
12:00 -5°C° 0.1 mm 3 m/s 740 mmHg 82%
13:00 -4°C° 0.1 mm 3 m/s 740 mmHg 81%
14:00 -4°C° 0.1 mm 4 m/s 740 mmHg 80%
15:00 -4°C° 0.1 mm 4 m/s 740 mmHg 80%
16:00 -5°C° 0.1 mm 3 m/s 741 mmHg 81%
17:00 -6°C° 0.1 mm 3 m/s 741 mmHg 82%
18:00 -7°C° 0 mm 3 m/s 741 mmHg 84%
19:00 -8°C° 0 mm 4 m/s 742 mmHg 86%
20:00 -9°C° 0 mm 4 m/s 742 mmHg 88%
21:00 -9°C° 0 mm 4 m/s 742 mmHg 89%
22:00 -9°C° 0 mm 4 m/s 743 mmHg 91%
23:00 -9°C° 0 mm 4 m/s 743 mmHg 92%

Amanhã, 6 Março, Sábado

Tempo Temperatura Precipitação Vento Pressão Humidade
00:00 -10°C° 0 mm 4 m/s 743 mmHg 91%
01:00 -10°C° 0 mm 4 m/s 744 mmHg 90%
02:00 -10°C° 0 mm 3 m/s 744 mmHg 89%
03:00 -12°C° 0 mm 3 m/s 744 mmHg 89%
04:00 -12°C° 0 mm 3 m/s 744 mmHg 90%
05:00 -13°C° 0 mm 3 m/s 744 mmHg 90%
06:00 -13°C° 0 mm 3 m/s 745 mmHg 90%
07:00 -10°C° 0 mm 2 m/s 745 mmHg 90%
08:00 -10°C° 0 mm 2 m/s 745 mmHg 90%
09:00 -9°C° 0 mm 3 m/s 746 mmHg 84%
10:00 -8°C° 0 mm 3 m/s 746 mmHg 79%
11:00 -6°C° 0 mm 3 m/s 746 mmHg 74%
12:00 -7°C° 0 mm 4 m/s 746 mmHg 73%
13:00 -7°C° 0 mm 4 m/s 746 mmHg 71%
14:00 -5°C° 0 mm 4 m/s 746 mmHg 70%
15:00 -7°C° 0 mm 4 m/s 745 mmHg 73%
16:00 -7°C° 0 mm 3 m/s 745 mmHg 77%
17:00 -8°C° 0 mm 3 m/s 745 mmHg 80%
18:00 -8°C° 0 mm 3 m/s 745 mmHg 81%
19:00 -9°C° 0 mm 3 m/s 745 mmHg 82%
20:00 -11°C° 0 mm 4 m/s 744 mmHg 82%
21:00 -10°C° 0 mm 4 m/s 744 mmHg 82%
22:00 -11°C° 0 mm 5 m/s 743 mmHg 81%
23:00 -10°C° 0 mm 5 m/s 743 mmHg 80%

Depois de amanhã, 7 Março, Domingo

Tempo Temperatura Precipitação Vento Pressão Humidade
00:00 -10°C° 0 mm 6 m/s 742 mmHg 81%
01:00 -11°C° 0 mm 7 m/s 741 mmHg 81%
02:00 -11°C° 0 mm 7 m/s 740 mmHg 82%
03:00 -10°C° 0 mm 8 m/s 739 mmHg 82%
04:00 -10°C° 0 mm 8 m/s 738 mmHg 82%
05:00 -9°C° 0 mm 9 m/s 737 mmHg 82%
06:00 -9°C° 0.3 mm 10 m/s 735 mmHg 86%
07:00 -8°C° 0.3 mm 10 m/s 734 mmHg 89%
08:00 -8°C° 0.3 mm 11 m/s 733 mmHg 92%
09:00 -7°C° 0.5 mm 11 m/s 733 mmHg 93%
10:00 -7°C° 0.5 mm 10 m/s 733 mmHg 93%
11:00 -5°C° 0.5 mm 10 m/s 733 mmHg 94%
12:00 -6°C° 0.2 mm 9 m/s 733 mmHg 83%
13:00 -6°C° 0.2 mm 8 m/s 734 mmHg 72%
14:00 -7°C° 0.2 mm 7 m/s 734 mmHg 61%
15:00 -7°C° 0 mm 7 m/s 734 mmHg 64%
16:00 -8°C° 0 mm 6 m/s 734 mmHg 67%
17:00 -8°C° 0 mm 6 m/s 734 mmHg 69%
18:00 -9°C° 0 mm 6 m/s 734 mmHg 71%
19:00 -9°C° 0 mm 6 m/s 733 mmHg 72%
20:00 -10°C° 0 mm 6 m/s 733 mmHg 73%
21:00 -10°C° 0 mm 6 m/s 733 mmHg 75%
22:00 -9°C° 0 mm 7 m/s 733 mmHg 76%
23:00 -9°C° 0 mm 7 m/s 732 mmHg 77%

8 Março, Segunda-feira

Tempo Temperatura Precipitação Vento Pressão Humidade
00:00 -11°C° 0 mm 7 m/s 732 mmHg 79%
01:00 -11°C° 0 mm 7 m/s 733 mmHg 80%
02:00 -11°C° 0 mm 7 m/s 733 mmHg 82%
03:00 -11°C° 0.1 mm 6 m/s 733 mmHg 81%
04:00 -12°C° 0.1 mm 5 m/s 733 mmHg 81%
05:00 -12°C° 0.1 mm 4 m/s 734 mmHg 80%
06:00 -14°C° 0 mm 4 m/s 735 mmHg 82%
07:00 -14°C° 0 mm 4 m/s 735 mmHg 83%
08:00 -14°C° 0 mm 4 m/s 736 mmHg 84%
09:00 -12°C° 0 mm 4 m/s 737 mmHg 82%
10:00 -11°C° 0 mm 4 m/s 737 mmHg 79%
11:00 -10°C° 0 mm 4 m/s 738 mmHg 76%
12:00 -9°C° 0 mm 4 m/s 738 mmHg 76%
13:00 -9°C° 0 mm 4 m/s 738 mmHg 75%
14:00 -8°C° 0 mm 4 m/s 738 mmHg 75%
15:00 -9°C° 0 mm 4 m/s 738 mmHg 78%
16:00 -8°C° 0 mm 3 m/s 738 mmHg 81%
17:00 -8°C° 0 mm 2 m/s 738 mmHg 84%
18:00 -8°C° 0 mm 2 m/s 739 mmHg 85%
19:00 -9°C° 0 mm 2 m/s 739 mmHg 86%
20:00 -10°C° 0 mm 2 m/s 739 mmHg 88%
21:00 -10°C° 0 mm 2 m/s 740 mmHg 89%
22:00 -12°C° 0 mm 3 m/s 740 mmHg 91%
23:00 -12°C° 0 mm 3 m/s 740 mmHg 92%

9 Março, Terça-feira

Tempo Temperatura Precipitação Vento Pressão Humidade
00:00 -13°C° 0 mm 3 m/s 740 mmHg 92%
01:00 -14°C° 0 mm 4 m/s 741 mmHg 92%
02:00 -15°C° 0 mm 4 m/s 741 mmHg 92%
03:00 -16°C° 0 mm 4 m/s 742 mmHg 92%
04:00 -17°C° 0 mm 4 m/s 742 mmHg 93%
05:00 -17°C° 0 mm 3 m/s 742 mmHg 93%
06:00 -18°C° 0 mm 4 m/s 743 mmHg 92%
07:00 -18°C° 0 mm 4 m/s 744 mmHg 91%
08:00 -18°C° 0 mm 5 m/s 744 mmHg 90%
09:00 -17°C° 0 mm 4 m/s 745 mmHg 88%
10:00 -16°C° 0 mm 4 m/s 745 mmHg 86%
11:00 -15°C° 0 mm 4 m/s 746 mmHg 84%
12:00 -15°C° 0 mm 4 m/s 746 mmHg 82%
13:00 -14°C° 0 mm 4 m/s 746 mmHg 80%
14:00 -12°C° 0 mm 3 m/s 747 mmHg 79%
15:00 -13°C° 0 mm 3 m/s 747 mmHg 81%
16:00 -12°C° 0 mm 2 m/s 747 mmHg 83%
17:00 -12°C° 0 mm 2 m/s 747 mmHg 85%
18:00 -13°C° 0 mm 2 m/s 747 mmHg 85%
19:00 -14°C° 0 mm 2 m/s 747 mmHg 86%
20:00 -15°C° 0 mm 2 m/s 748 mmHg 87%
21:00 -15°C° 0 mm 2 m/s 748 mmHg 86%
22:00 -16°C° 0 mm 3 m/s 748 mmHg 86%
23:00 -15°C° 0 mm 3 m/s 748 mmHg 86%

10 Março, Quarta-feira

Tempo Temperatura Precipitação Vento Pressão Humidade
00:00 -15°C° 0 mm 3 m/s 747 mmHg 85%
01:00 -15°C° 0 mm 4 m/s 747 mmHg 83%
02:00 -15°C° 0 mm 4 m/s 747 mmHg 82%
03:00 -14°C° 0 mm 4 m/s 747 mmHg 82%
04:00 -14°C° 0 mm 5 m/s 747 mmHg 81%
05:00 -13°C° 0 mm 5 m/s 746 mmHg 81%
06:00 -13°C° 0 mm 5 m/s 746 mmHg 80%
07:00 -13°C° 0 mm 5 m/s 746 mmHg 80%
08:00 -12°C° 0 mm 6 m/s 746 mmHg 79%
09:00 -11°C° 0 mm 6 m/s 746 mmHg 78%
10:00 -10°C° 0 mm 6 m/s 746 mmHg 76%
11:00 -9°C° 0 mm 6 m/s 745 mmHg 74%
12:00 -9°C° 0 mm 6 m/s 745 mmHg 74%
13:00 -8°C° 0 mm 6 m/s 745 mmHg 73%
14:00 -8°C° 0 mm 6 m/s 745 mmHg 72%
15:00 -7°C° 0 mm 5 m/s 745 mmHg 74%
16:00 -7°C° 0 mm 4 m/s 744 mmHg 76%
17:00 -8°C° 0 mm 4 m/s 744 mmHg 78%
18:00 -8°C° 0 mm 4 m/s 744 mmHg 79%
19:00 -9°C° 0 mm 4 m/s 744 mmHg 79%
20:00 -9°C° 0 mm 4 m/s 744 mmHg 80%
21:00 -10°C° 0 mm 4 m/s 744 mmHg 80%
22:00 -10°C° 0 mm 4 m/s 744 mmHg 81%
23:00 -10°C° 0 mm 4 m/s 744 mmHg 81%
Mostrar mais